Miscellaneous Local Product
Issued by NWS North Platte, NE

Home | Current Version | Previous Version | Text Only | Print | Product List | Glossary On
Versions: 1 2 3 4 5 6 7 8 9 10 11 12 13 14 15 16 17 18 19 20 21 22 23 24 25 26 27 28 29 30 31 32 33 34 35 36 37 38 39 40 41 42 43 44 45 46 47 48 49 50
122
AXUS43 KLBF 292210
MISLBF


WESTERN AND NORTH CENTRAL NEBRASKA HOURLY WEATHER ROUNDUP
NATIONAL WEATHER SERVICE NORTH PLATTE NE
500 PM CDT THU SEP 29 2016

NOTE: "FAIR" INDICATES FEW OR NO CLOUDS BELOW 12,000 FEET WITH NO
SIGNIFICANT WEATHER AND/OR OBSTRUCTIONS TO VISIBILITY.

NOTE: STATIONS NOT REPORTING VARIABLES SUCH AS SKY/WEATHER OR
PRESSURE ARE PROVIDED BY RAWS AND APRS NETWORKS AND ARE NOT UNDER
NATIONAL WEATHER SERVICE QUALITY CONTROL.

...OBSERVATIONS IN AND NEAR THE EASTERN PANHANDLE OF NEBRASKA...

CITY           SKY/WX    TMP DP  RH WIND       PRES   REMARKS
PINE RIDGE     SUNNY     80  42  25 SE16      30.22S
CHADRON        SUNNY     81  42  25 S20       30.19F
ALLIANCE       SUNNY     77  41  27 S20G30    30.26F
SIDNEY         SUNNY     78  43  28 SE22G30   30.27F
CRESCENT LAKE    N/A     75  42  31 S10G20      N/A
$$

...OBSERVATIONS IN NORTHERN NEBRASKA AND FAR SOUTHERN SOUTH DAKOTA...

CITY           SKY/WX    TMP DP  RH WIND       PRES   REMARKS
WINNER         FAIR      74  44  34 SE17      30.29F
VALENTINE      SUNNY     74  38  27 SE17      30.28F
THEDFORD       SUNNY     74  41  30 S13       30.31F
AINSWORTH      SUNNY     71  41  33 SE14      30.31F
O`NEILL        SUNNY     69  43  38 SE8       30.34F
ORD            SUNNY     68  41  37 SE10      30.32F
BROKEN BOW     SUNNY     69  42  37 SE10      30.33F
VALENTINE NWR    N/A     74  40  28 S10G17      N/A
BUTTE            N/A     67  48  49 E10         N/A
HALSEY           N/A     74  40  28 SE8G15      N/A
EWING            N/A     70  50  49 SE3         N/A
$$

...OBSERVATIONS IN SOUTHWEST NEBRASKA AND FAR NORTHEAST COLORADO...

CITY           SKY/WX    TMP DP  RH WIND       PRES   REMARKS
WRAY           FAIR      79  41  25 SE17G28   30.27
HOLYOKE        FAIR      79  41  25 SE20G28   30.27F
IMPERIAL       SUNNY     76  40  27 SE16G25   30.29F
OGALLALA       SUNNY     77  39  25 SE13G21   30.28F
NORTH PLATTE   SUNNY     74  41  30 SE10      30.30F
MCCOOK         SUNNY     73  43  33 SE14      30.31F
LEXINGTON      SUNNY     71  38  30 SE9       30.33F
STAPLETON        N/A     72  43  34 CALM        N/A
GOTHENBURG       N/A     69  39  34 SE7         N/A
CALLAWAY         N/A     73  44  36 S10         N/A
$$

...OBSERVATIONS IN CENTRAL LINCOLN COUNTY AREA...

CITY           SKY/WX    TMP DP  RH WIND       PRES   REMARKS
N.P. AIRPORT   SUNNY     74  41  30 SE10      30.30F
N.P. DOWNTOWN    N/A     72  44  35 SE3G12      N/A
N.P. SOUTHEAST   N/A     73  42  33 SE6G13      N/A
N.P. HILLCREST   N/A     73  42  33 S12G18      N/A
$$

...SOME OBSERVATIONS FROM AROUND THE REGION...

CITY           SKY/WX    TMP DP  RH WIND       PRES   REMARKS
DENVER         MOSUNNY   87  31  13 S15G26    30.20F
LARAMIE        CLOUDY    68  36  30 N17       30.36S
CHEYENNE       SUNNY     77  34  21 SE9       30.30F
SCOTTSBLUFF    SUNNY     82  42  24 SE14G25   30.21F
RAPID CITY     SUNNY     81  44  27 S14       30.18F
BISMARCK       SUNNY     70  46  42 SE18G26   30.26F
PIERRE         SUNNY     73  40  30 SE18G24   30.25F
SIOUX FALLS    SUNNY     69  48  47 VRB7      30.36F
OMAHA          MOSUNNY   73  47  39 VRB5      30.33F
GRAND ISLAND   SUNNY     69  45  41 E7        30.35F
KANSAS CITY    SUNNY     71  47  42 N10       30.29F
WICHITA        MOSUNNY   71  49  45 VRB6      30.31F
OKLAHOMA CITY  MOSUNNY   73  48  41 N12       30.27F
DALLAS         MOSUNNY   78  48  34 N9        30.21S
AMARILLO       SUNNY     76  46  34 SE7       30.34F
DODGE CITY     SUNNY     74  37  26 VRB3      30.32F
HAYS           SUNNY     70  43  37 E9        30.33F
GOODLAND       SUNNY     74  42  31 S21G33    30.30F
$$




USA.gov is the U.S. government's official web portal to all federal, state and local government web resources and services.